1 Minute Report
Date Time Wind Direction Wind Speed Wind Gust Wind Variable Altimeter Temperature Dewpoint Relative Humidity Visibility Ceiling Precip Present Weather Density Alt Wind Chill Heat Index
18/04/25 16:07 340 08 N/A N/A 30.03 49(F), 9(C) 48(F), 9(C) 100% 3 OVC004 N/A Mist N/A 46 F N/A 733
18/04/25 16:06 330 08 N/A N/A 30.03 49(F), 9(C) 48(F), 9(C) 100% 3 OVC004 N/A Mist N/A 46 F N/A 732
18/04/25 16:05 340 08 N/A N/A 30.03 49(F), 9(C) 48(F), 9(C) 100% 3 OVC004 N/A Mist N/A 46 F N/A 731
18/04/25 16:04 340 09 N/A N/A 30.03 49(F), 9(C) 48(F), 9(C) 100% 3 OVC004 N/A Mist N/A 45 F N/A 730
18/04/25 16:03 330 10 N/A N/A 30.03 49(F), 9(C) 48(F), 9(C) 100% 3 OVC004 N/A Mist N/A 45 F N/A 729
18/04/25 16:02 330 10 N/A N/A 30.03 49(F), 9(C) 48(F), 9(C) 100% 3 OVC004 N/A Mist N/A 45 F N/A 728
18/04/25 16:01 330 09 N/A N/A 30.03 48(F), 9(C) 48(F), 9(C) 100% 3 OVC004 N/A Mist N/A 44 F N/A 727
18/04/25 16:00 340 09 N/A N/A 30.03 48(F), 9(C) 48(F), 9(C) 100% 3 OVC004 N/A Mist N/A 44 F N/A 726
18/04/25 15:59 340 08 N/A N/A 30.03 48(F), 9(C) 48(F), 9(C) 100% 3 OVC004 N/A Mist N/A 44 F N/A 725
18/04/25 15:58 330 08 N/A N/A 30.03 48(F), 9(C) 48(F), 9(C) 100% 3 OVC004 N/A Mist N/A 44 F N/A 724
18/04/25 15:57 330 09 N/A N/A 30.03 48(F), 9(C) 48(F), 9(C) 100% 3 OVC004 N/A Mist N/A 44 F N/A 723
18/04/25 15:56 330 10 N/A N/A 30.03 48(F), 9(C) 48(F), 9(C) 100% 3 OVC004 N/A Mist N/A 44 F N/A 722
18/04/25 15:55 330 09 N/A N/A 30.03 48(F), 9(C) 48(F), 9(C) 100% 3 OVC004 N/A Mist N/A 44 F N/A 721
18/04/25 15:54 330 09 N/A N/A 30.03 48(F), 9(C) 48(F), 9(C) 100% 3 OVC004 N/A Mist N/A 44 F N/A 720
18/04/25 15:53 330 09 N/A N/A 30.03 49(F), 9(C) 48(F), 9(C) 100% 3 OVC004 N/A Mist N/A 45 F N/A 719
18/04/25 15:52 330 08 N/A N/A 30.03 49(F), 9(C) 48(F), 9(C) 100% 4 OVC004 N/A Mist N/A 46 F N/A 718
18/04/25 15:51 330 08 N/A N/A 30.03 49(F), 9(C) 48(F), 9(C) 100% 4 OVC004 N/A Mist N/A 46 F N/A 717
18/04/25 15:50 340 09 N/A N/A 30.03 49(F), 9(C) 49(F), 9(C) 100% 4 OVC004 N/A Mist N/A 45 F N/A 716
18/04/25 15:49 330 10 N/A N/A 30.03 49(F), 9(C) 49(F), 9(C) 100% 3 OVC004 N/A Mist N/A 45 F N/A 715
18/04/25 15:48 340 09 N/A N/A 30.03 49(F), 9(C) 49(F), 9(C) 100% 3 OVC004 N/A Mist N/A 45 F N/A 714
18/04/25 15:47 340 09 N/A N/A 30.03 49(F), 9(C) 49(F), 9(C) 100% 3 OVC004 N/A Mist N/A 45 F N/A 713
18/04/25 15:46 340 09 N/A N/A 30.03 49(F), 9(C) 48(F), 9(C) 100% 3 OVC004 N/A Mist N/A 45 F N/A 712
18/04/25 15:45 340 09 N/A N/A 30.03 49(F), 9(C) 48(F), 9(C) 100% 3 OVC004 N/A Mist N/A 45 F N/A 711
18/04/25 15:44 340 10 N/A N/A 30.03 49(F), 9(C) 48(F), 9(C) 100% 3 OVC004 N/A Mist N/A 45 F N/A 710
18/04/25 15:43 340 10 N/A N/A 30.03 49(F), 9(C) 48(F), 9(C) 100% 3 OVC004 N/A Mist N/A 45 F N/A 709
18/04/25 15:42 340 09 N/A N/A 30.03 49(F), 9(C) 48(F), 9(C) 100% 3 OVC004 N/A Mist N/A 45 F N/A 708
18/04/25 15:41 340 10 N/A N/A 30.03 49(F), 9(C) 48(F), 9(C) 100% 2 1/2 OVC004 N/A Mist N/A 45 F N/A 707
18/04/25 15:40 350 11 N/A N/A 30.03 49(F), 9(C) 48(F), 9(C) 100% 2 1/2 OVC004 N/A Mist N/A 44 F N/A 706
18/04/25 15:39 340 09 N/A N/A 30.03 48(F), 9(C) 48(F), 9(C) 100% 2 1/2 OVC004 N/A Mist N/A 44 F N/A 705
18/04/25 15:38 340 07 N/A N/A 30.03 48(F), 9(C) 48(F), 9(C) 100% 2 1/2 OVC004 N/A Mist N/A 45 F N/A 704
18/04/25 15:37 330 07 N/A N/A 30.03 48(F), 9(C) 48(F), 9(C) 100% 3 OVC004 N/A Mist N/A 45 F N/A 703
18/04/25 15:36 340 08 N/A N/A 30.03 49(F), 9(C) 48(F), 9(C) 100% 3 OVC004 N/A Mist N/A 46 F N/A 702
18/04/25 15:35 340 09 N/A N/A 30.03 49(F), 9(C) 48(F), 9(C) 100% 2 1/2 OVC004 N/A Mist N/A 45 F N/A 701
18/04/25 15:34 340 10 N/A N/A 30.03 49(F), 9(C) 48(F), 9(C) 100% 2 1/2 OVC004 N/A Mist N/A 45 F N/A 700
18/04/25 15:33 340 11 N/A N/A 30.03 49(F), 9(C) 49(F), 9(C) 100% 2 1/2 OVC004 N/A Mist N/A 44 F N/A 699
18/04/25 15:32 340 12 N/A N/A 30.03 49(F), 9(C) 49(F), 9(C) 100% 2 1/2 OVC004 N/A Mist N/A 44 F N/A 698
18/04/25 15:31 340 12 N/A N/A 30.03 49(F), 9(C) 49(F), 9(C) 100% 2 1/2 OVC004 N/A Mist N/A 44 F N/A 697
18/04/25 15:30 340 10 N/A N/A 30.03 49(F), 9(C) 49(F), 9(C) 100% 3 OVC004 N/A Mist N/A 45 F N/A 696
18/04/25 15:29 340 09 N/A N/A 30.03 49(F), 9(C) 49(F), 9(C) 100% 3 OVC004 N/A Mist N/A 45 F N/A 695
18/04/25 15:28 340 09 N/A N/A 30.03 49(F), 9(C) 49(F), 9(C) 100% 3 OVC004 N/A Mist N/A 45 F N/A 694
18/04/25 15:27 340 09 N/A N/A 30.03 49(F), 9(C) 49(F), 9(C) 100% 3 OVC004 N/A Mist N/A 45 F N/A 693
18/04/25 15:26 330 08 N/A N/A 30.03 49(F), 9(C) 49(F), 9(C) 100% 3 OVC004 N/A Mist N/A 46 F N/A 692
18/04/25 15:25 340 09 N/A N/A 30.03 49(F), 9(C) 49(F), 9(C) 100% 3 OVC004 N/A Mist N/A 45 F N/A 691
18/04/25 15:24 340 10 N/A N/A 30.03 49(F), 9(C) 49(F), 9(C) 100% 3 OVC004 N/A Mist N/A 45 F N/A 690
18/04/25 15:23 340 10 N/A N/A 30.03 49(F), 9(C) 49(F), 9(C) 100% 3 OVC004 N/A Mist N/A 45 F N/A 689
18/04/25 15:22 340 10 N/A N/A 30.03 49(F), 9(C) 49(F), 9(C) 100% 3 OVC004 N/A Mist N/A 45 F N/A 688
18/04/25 15:21 340 10 N/A N/A 30.03 49(F), 9(C) 49(F), 9(C) 100% 3 OVC004 N/A Mist N/A 45 F N/A 687
18/04/25 15:20 340 10 N/A N/A 30.03 49(F), 9(C) 49(F), 9(C) 100% 3 OVC004 N/A Mist N/A 45 F N/A 686
18/04/25 15:19 330 09 N/A N/A 30.03 49(F), 9(C) 49(F), 9(C) 100% 3 OVC004 N/A Mist N/A 45 F N/A 685
18/04/25 15:18 330 09 N/A N/A 30.03 49(F), 9(C) 49(F), 9(C) 100% 3 OVC004 N/A Mist N/A 45 F N/A 684
18/04/25 15:17 330 10 N/A N/A 30.03 49(F), 9(C) 49(F), 9(C) 100% 2 1/2 OVC004 N/A Mist N/A 45 F N/A 683
18/04/25 15:16 330 09 N/A N/A 30.03 49(F), 9(C) 49(F), 9(C) 100% 3 OVC004 N/A Mist N/A 45 F N/A 682
18/04/25 15:15 340 09 N/A N/A 30.03 49(F), 9(C) 49(F), 9(C) 100% 3 OVC004 N/A Mist N/A 45 F N/A 681
18/04/25 15:14 340 08 N/A N/A 30.03 49(F), 9(C) 49(F), 9(C) 100% 3 OVC004 N/A Mist N/A 46 F N/A 680
18/04/25 15:13 340 09 N/A N/A 30.03 49(F), 9(C) 49(F), 9(C) 100% 3 OVC004 N/A Mist N/A 45 F N/A 679
18/04/25 15:12 330 09 N/A N/A 30.03 49(F), 9(C) 49(F), 9(C) 100% 3 OVC004 N/A Mist N/A 45 F N/A 678
18/04/25 15:11 330 08 N/A N/A 30.03 49(F), 9(C) 49(F), 9(C) 100% 3 OVC004 N/A Mist N/A 46 F N/A 677
18/04/25 15:10 330 08 N/A N/A 30.03 49(F), 9(C) 49(F), 9(C) 100% 3 OVC004 N/A Mist N/A 46 F N/A 676
18/04/25 15:09 340 08 N/A N/A 30.03 49(F), 9(C) 49(F), 9(C) 100% 4 OVC004 N/A Mist N/A 46 F N/A 675
18/04/25 15:08 350 08 N/A N/A 30.03 49(F), 9(C) 49(F), 9(C) 100% 4 OVC004 N/A Mist N/A 46 F N/A 674
18/04/25 15:07 350 09 N/A N/A 30.03 49(F), 9(C) 49(F), 9(C) 100% 4 OVC004 N/A Mist N/A 45 F N/A 673
18/04/25 15:06 350 09 N/A N/A 30.03 49(F), 9(C) 49(F), 9(C) 100% 4 OVC004 N/A Mist N/A 45 F N/A 672
18/04/25 15:05 340 08 N/A N/A 30.03 49(F), 9(C) 49(F), 9(C) 100% 4 OVC004 N/A Mist N/A 46 F N/A 671
18/04/25 15:04 330 08 N/A N/A 30.03 49(F), 9(C) 49(F), 9(C) 100% 3 OVC004 N/A Mist N/A 46 F N/A 670
18/04/25 15:03 330 09 N/A N/A 30.03 49(F), 9(C) 49(F), 9(C) 100% 3 OVC004 N/A Mist N/A 45 F N/A 669
18/04/25 15:02 330 08 N/A N/A 30.03 49(F), 9(C) 49(F), 9(C) 100% 3 OVC004 N/A Mist N/A 46 F N/A 668
18/04/25 15:01 340 09 N/A N/A 30.03 49(F), 9(C) 49(F), 9(C) 100% 3 OVC004 N/A Mist N/A 45 F N/A 667
18/04/25 15:00 340 10 N/A N/A 30.03 49(F), 9(C) 49(F), 9(C) 100% 3 OVC004 N/A Mist N/A 45 F N/A 666
18/04/25 14:59 340 10 N/A N/A 30.03 49(F), 9(C) 49(F), 9(C) 100% 2 1/2 OVC004 N/A Mist N/A 45 F N/A 665
18/04/25 14:58 330 09 N/A N/A 30.03 49(F), 9(C) 49(F), 9(C) 100% 2 1/2 OVC004 N/A Mist N/A 45 F N/A 664
18/04/25 14:57 330 08 N/A N/A 30.03 49(F), 9(C) 49(F), 9(C) 100% 2 1/2 OVC004 N/A Mist N/A 46 F N/A 663
18/04/25 14:56 330 08 N/A N/A 30.03 49(F), 9(C) 49(F), 9(C) 100% 2 1/2 OVC004 N/A Mist N/A 46 F N/A 662
18/04/25 14:55 330 09 N/A N/A 30.03 49(F), 9(C) 49(F), 9(C) 100% 2 1/2 OVC004 N/A Mist N/A 45 F N/A 661
18/04/25 14:54 330 08 N/A N/A 30.03 49(F), 9(C) 49(F), 9(C) 100% 2 1/2 OVC004 N/A Mist N/A 46 F N/A 660
18/04/25 14:53 330 08 N/A N/A 30.03 49(F), 9(C) 49(F), 9(C) 100% 2 1/2 OVC004 N/A Mist N/A 46 F N/A 659
18/04/25 14:52 330 08 N/A N/A 30.03 49(F), 9(C) 49(F), 9(C) 100% 2 1/2 OVC004 N/A Mist N/A 46 F N/A 658
18/04/25 14:51 340 07 N/A N/A 30.03 49(F), 9(C) 49(F), 9(C) 100% 2 1/2 OVC004 N/A Mist N/A 46 F N/A 657
18/04/25 14:50 340 07 N/A N/A 30.03 49(F), 9(C) 49(F), 9(C) 100% 2 1/2 OVC004 N/A Mist N/A 46 F N/A 656
18/04/25 14:49 330 08 N/A N/A 30.03 49(F), 9(C) 49(F), 9(C) 100% 2 1/2 OVC004 N/A Mist N/A 46 F N/A 655
18/04/25 14:48 340 08 N/A N/A 30.03 50(F), 10(C) 49(F), 9(C) 94% 3 OVC004 N/A Mist N/A 47 F N/A 654
18/04/25 14:47 340 08 N/A N/A 30.03 50(F), 10(C) 49(F), 9(C) 94% 3 OVC004 N/A Mist N/A 47 F N/A 653
18/04/25 14:46 340 09 N/A N/A 30.03 50(F), 10(C) 49(F), 9(C) 94% 3 OVC004 N/A Mist N/A 46 F N/A 652
18/04/25 14:45 340 09 N/A N/A 30.03 50(F), 10(C) 49(F), 9(C) 94% 4 OVC004 N/A Mist N/A 46 F N/A 651
18/04/25 14:44 340 09 N/A N/A 30.03 50(F), 10(C) 49(F), 9(C) 94% 4 OVC004 N/A Mist N/A 46 F N/A 650
18/04/25 14:43 330 07 N/A N/A 30.03 50(F), 10(C) 49(F), 9(C) 94% 4 OVC004 N/A Mist N/A 47 F N/A 649
18/04/25 14:42 330 06 N/A N/A 30.03 50(F), 10(C) 49(F), 9(C) 94% 4 OVC004 N/A Mist N/A 48 F N/A 648
18/04/25 14:41 330 07 N/A N/A 30.03 50(F), 10(C) 49(F), 9(C) 94% 4 OVC004 N/A Mist N/A 47 F N/A 647
18/04/25 14:40 340 07 N/A N/A 30.03 50(F), 10(C) 49(F), 9(C) 94% 4 OVC004 N/A Mist N/A 47 F N/A 646
18/04/25 14:39 340 07 N/A N/A 30.03 50(F), 10(C) 49(F), 9(C) 94% 4 OVC004 N/A Mist N/A 47 F N/A 645
18/04/25 14:38 340 07 N/A N/A 30.03 50(F), 10(C) 49(F), 9(C) 94% 4 OVC004 N/A Mist N/A 47 F N/A 644
18/04/25 14:37 340 06 N/A N/A 30.03 50(F), 10(C) 49(F), 9(C) 94% 4 OVC004 N/A Mist N/A 48 F N/A 643
18/04/25 14:36 350 07 N/A N/A 30.03 50(F), 10(C) 49(F), 9(C) 94% 4 OVC004 N/A Mist N/A 47 F N/A 642
18/04/25 14:35 350 08 N/A N/A 30.03 50(F), 10(C) 49(F), 9(C) 94% 4 OVC004 N/A Mist N/A 47 F N/A 641
18/04/25 14:34 350 08 N/A N/A 30.03 50(F), 10(C) 49(F), 9(C) 94% 4 OVC004 N/A Mist N/A 47 F N/A 640
18/04/25 14:33 350 09 N/A N/A 30.03 50(F), 10(C) 50(F), 10(C) 100% 4 OVC004 N/A Mist N/A 46 F N/A 639
18/04/25 14:32 350 09 N/A N/A 30.03 50(F), 10(C) 50(F), 10(C) 100% 4 OVC004 N/A Mist N/A 46 F N/A 638
18/04/25 14:31 350 08 N/A N/A 30.03 50(F), 10(C) 49(F), 9(C) 94% 4 OVC004 N/A Mist N/A 47 F N/A 637
18/04/25 14:30 340 07 N/A N/A 30.03 50(F), 10(C) 49(F), 9(C) 94% 4 OVC004 N/A Mist N/A 47 F N/A 636
18/04/25 14:29 340 07 N/A N/A 30.02 50(F), 10(C) 50(F), 10(C) 100% 4 OVC004 N/A Mist N/A 47 F N/A 635
18/04/25 14:28 350 07 N/A N/A 30.02 50(F), 10(C) 49(F), 9(C) 94% 3 OVC004 N/A Mist N/A 47 F N/A 634
18/04/25 14:27 360 07 N/A N/A 30.02 50(F), 10(C) 49(F), 9(C) 94% 3 OVC004 N/A Mist N/A 47 F N/A 633
18/04/25 14:26 360 07 N/A N/A 30.02 50(F), 10(C) 50(F), 10(C) 100% 3 OVC004 N/A Mist N/A 47 F N/A 632
18/04/25 14:25 350 07 N/A N/A 30.02 50(F), 10(C) 50(F), 10(C) 100% 3 OVC004 N/A Mist N/A 47 F N/A 631
18/04/25 14:24 350 07 N/A N/A 30.02 50(F), 10(C) 49(F), 9(C) 94% 3 OVC004 N/A Mist N/A 47 F N/A 630
18/04/25 14:23 360 06 N/A N/A 30.02 50(F), 10(C) 50(F), 10(C) 100% 3 OVC004 N/A Mist N/A 48 F N/A 629
18/04/25 14:22 360 06 N/A N/A 30.02 50(F), 10(C) 50(F), 10(C) 100% 3 OVC004 N/A Mist N/A 48 F N/A 628
18/04/25 14:21 360 06 N/A N/A 30.02 50(F), 10(C) 50(F), 10(C) 100% 3 OVC004 N/A Mist N/A 48 F N/A 627
18/04/25 14:20 350 06 N/A N/A 30.02 50(F), 10(C) 50(F), 10(C) 100% 3 OVC004 N/A Mist N/A 48 F N/A 626
18/04/25 14:19 340 06 N/A N/A 30.02 50(F), 10(C) 50(F), 10(C) 100% 3 OVC004 N/A Mist N/A 48 F N/A 625
18/04/25 14:18 350 07 N/A N/A 30.02 50(F), 10(C) 50(F), 10(C) 100% 3 OVC002 N/A Mist N/A 47 F N/A 624
18/04/25 14:17 350 07 N/A N/A 30.02 50(F), 10(C) 50(F), 10(C) 100% 3 OVC002 N/A Mist N/A 47 F N/A 623
18/04/25 14:16 350 07 N/A N/A 30.02 49(F), 9(C) 49(F), 9(C) 100% 3 OVC002 N/A Mist N/A 46 F N/A 622
18/04/25 14:15 350 06 N/A N/A 30.02 49(F), 9(C) 49(F), 9(C) 100% 3 OVC002 N/A Mist N/A 46 F N/A 621
18/04/25 14:14 350 07 N/A N/A 30.02 49(F), 9(C) 49(F), 9(C) 100% 3 OVC002 N/A Mist N/A 46 F N/A 620
18/04/25 14:13 350 07 N/A N/A 30.02 49(F), 9(C) 49(F), 9(C) 100% 3 OVC002 N/A Mist N/A 46 F N/A 619
18/04/25 14:12 350 07 N/A N/A 30.02 49(F), 9(C) 49(F), 9(C) 100% 3 OVC002 N/A Mist N/A 46 F N/A 618
18/04/25 14:11 350 07 N/A N/A 30.02 49(F), 9(C) 49(F), 9(C) 100% 3 OVC002 N/A Mist N/A 46 F N/A 617
18/04/25 14:10 350 07 N/A N/A 30.02 49(F), 9(C) 49(F), 9(C) 100% 3 OVC002 N/A Mist N/A 46 F N/A 616
18/04/25 14:09 350 06 N/A N/A 30.02 49(F), 9(C) 49(F), 9(C) 100% 3 OVC002 N/A Mist N/A 46 F N/A 615
18/04/25 14:08 350 07 N/A N/A 30.02 49(F), 9(C) 49(F), 9(C) 100% 2 1/2 OVC002 N/A Mist N/A 46 F N/A 614
18/04/25 14:07 350 08 N/A N/A 30.02 49(F), 9(C) 49(F), 9(C) 100% 2 1/2 OVC002 N/A Mist N/A 46 F N/A 613